Time,TemperatureF,DewpointF,PressureIn,WindDirection,WindDirectionDegrees,WindSpeedMPH,WindSpeedGustMPH,Humidity,HourlyPrecipIn,Conditions,Clouds,dailyrainin,SolarRadiationWatts/m^2,SoftwareType,DateUTC
2013-02-22 00:00:00,25.6,13.2,30.15,NW,326,5.8,5.8,59,0.00,CLR,,0.00,0.0,WeatherDisplay:10.37,2013-02-22 05:00:00,
2013-02-22 00:01:00,25.6,13.2,30.15,North,353,5.8,5.8,59,0.00,CLR,,0.00,0.0,WeatherDisplay:10.37,2013-02-22 05:01:00,
2013-02-22 00:05:00,25.4,13.1,30.15,North,359,3.5,3.5,59,0.00,CLR,,0.00,0.0,WeatherDisplay:10.37,2013-02-22 05:05:00,
2013-02-22 00:07:00,25.4,13.1,30.15,NNE,13,4.6,4.6,59,0.00,CLR,,0.00,0.0,WeatherDisplay:10.37,2013-02-22 05:07:00,
2013-02-22 00:12:00,25.3,13.0,30.15,NNW,332,5.8,5.8,59,0.00,CLR,,0.00,0.0,WeatherDisplay:10.37,2013-02-22 05:12:00,
2013-02-22 00:17:00,25.3,13.0,30.14,NW,304,5.8,5.8,59,0.00,FEW,,0.00,0.0,WeatherDisplay:10.37,2013-02-22 05:17:00,
2013-02-22 00:22:00,25.1,13.2,30.14,NNW,332,5.8,5.8,60,0.00,FEW,,0.00,0.0,WeatherDisplay:10.37,2013-02-22 05:22:00,
2013-02-22 00:27:00,25.1,13.2,30.14,North,1,1.1,1.1,60,0.00,FEW,,0.00,0.0,WeatherDisplay:10.37,2013-02-22 05:27:00,
2013-02-22 00:32:00,25.0,13.1,30.14,NNW,329,5.8,5.8,60,0.00,FEW,,0.00,0.0,WeatherDisplay:10.37,2013-02-22 05:32:00,
2013-02-22 00:37:00,24.8,12.9,30.14,ENE,58,2.3,2.3,60,0.00,FEW,,0.00,0.0,WeatherDisplay:10.37,2013-02-22 05:37:00,
2013-02-22 00:42:00,24.8,12.9,30.14,NNW,343,3.5,3.5,60,0.00,FEW,,0.00,0.0,WeatherDisplay:10.37,2013-02-22 05:42:00,
2013-02-22 00:47:00,24.8,13.2,30.13,NW,318,2.3,2.3,61,0.00,FEW,,0.00,0.0,WeatherDisplay:10.37,2013-02-22 05:47:00,
2013-02-22 00:52:00,24.7,13.1,30.13,NW,322,2.3,2.3,61,0.00,FEW,,0.00,0.0,WeatherDisplay:10.37,2013-02-22 05:52:00,
2013-02-22 00:57:00,24.7,13.1,30.13,NNW,329,10.4,10.4,61,0.00,FEW,,0.00,0.0,WeatherDisplay:10.37,2013-02-22 05:57:00,
2013-02-22 01:02:00,24.5,13.0,30.14,NW,322,4.6,4.6,61,0.00,FEW,,0.00,0.0,WeatherDisplay:10.37,2013-02-22 06:02:00,
2013-02-22 01:07:00,24.4,12.9,30.14,West,277,2.3,2.3,61,0.00,FEW,,0.00,0.0,WeatherDisplay:10.37,2013-02-22 06:07:00,
2013-02-22 01:12:00,24.4,12.9,30.14,NW,326,3.5,3.5,61,0.00,FEW,,0.00,0.0,WeatherDisplay:10.37,2013-02-22 06:12:00,
2013-02-22 01:17:00,24.4,12.9,30.13,NNW,344,3.5,3.5,61,0.00,FEW,,0.00,0.0,WeatherDisplay:10.37,2013-02-22 06:17:00,
2013-02-22 01:22:00,24.2,12.7,30.13,ESE,123,3.5,3.5,61,0.00,FEW,,0.00,0.0,WeatherDisplay:10.37,2013-02-22 06:22:00,
2013-02-22 01:27:00,24.2,12.7,30.13,North,349,2.3,2.3,61,0.00,FEW,,0.00,0.0,WeatherDisplay:10.37,2013-02-22 06:27:00,
2013-02-22 01:32:00,24.2,13.0,30.14,NNW,333,4.0,4.0,62,0.00,FEW,,0.00,0.0,WeatherDisplay:10.37,2013-02-22 06:32:00,
2013-02-22 01:37:00,24.2,13.0,30.14,NW,316,1.1,1.1,62,0.00,FEW,,0.00,0.0,WeatherDisplay:10.37,2013-02-22 06:37:00,
2013-02-22 01:42:00,24.1,12.9,30.14,NW,326,3.5,3.5,62,0.00,FEW,,0.00,0.0,WeatherDisplay:10.37,2013-02-22 06:42:00,
2013-02-22 01:47:00,24.1,12.9,30.15,NW,308,6.9,6.9,62,0.00,FEW,,0.00,0.0,WeatherDisplay:10.37,2013-02-22 06:47:00,
2013-02-22 01:52:00,24.1,12.9,30.15,WNW,291,8.1,8.1,62,0.00,FEW,,0.00,0.0,WeatherDisplay:10.37,2013-02-22 06:52:00,
2013-02-22 01:57:00,23.9,12.8,30.15,WNW,295,5.8,5.8,62,0.00,FEW,,0.00,0.0,WeatherDisplay:10.37,2013-02-22 06:57:00,
2013-02-22 02:02:00,23.9,13.1,30.16,NW,311,5.8,5.8,63,0.00,FEW,,0.00,0.0,WeatherDisplay:10.37,2013-02-22 07:02:00,
2013-02-22 02:07:00,23.9,13.1,30.16,North,350,3.5,3.5,63,0.00,FEW,,0.00,0.0,WeatherDisplay:10.37,2013-02-22 07:07:00,
2013-02-22 02:12:00,23.8,13.0,30.16,North,354,4.6,4.6,63,0.00,FEW,,0.00,0.0,WeatherDisplay:10.37,2013-02-22 07:12:00,
2013-02-22 02:17:00,23.8,13.0,30.17,North,359,6.0,6.0,63,0.00,SCT,,0.00,0.0,WeatherDisplay:10.37,2013-02-22 07:17:00,
2013-02-22 02:22:00,23.8,13.0,30.17,North,0,1.1,1.1,63,0.00,SCT,,0.00,0.0,WeatherDisplay:10.37,2013-02-22 07:22:00,
2013-02-22 02:27:00,23.8,13.0,30.17,NNW,337,0.0,0.2,63,0.00,SCT,,0.00,0.0,WeatherDisplay:10.37,2013-02-22 07:27:00,
2013-02-22 02:32:00,23.8,13.4,30.17,NW,319,0.0,0.1,64,0.00,SCT,,0.00,0.0,WeatherDisplay:10.37,2013-02-22 07:32:00,
2013-02-22 02:37:00,23.8,13.4,30.17,NW,318,1.1,1.1,64,0.00,SCT,,0.00,0.0,WeatherDisplay:10.37,2013-02-22 07:37:00,
2013-02-22 02:42:00,23.6,13.2,30.17,NW,308,1.1,0.0,64,0.00,SCT,,0.00,0.0,WeatherDisplay:10.37,2013-02-22 07:42:00,
2013-02-22 02:47:00,23.6,13.2,30.17,North,349,2.3,2.3,64,0.00,SCT,,0.00,0.0,WeatherDisplay:10.37,2013-02-22 07:47:00,
2013-02-22 02:52:00,23.6,13.2,30.17,NW,320,5.8,5.8,64,0.00,SCT,,0.00,0.0,WeatherDisplay:10.37,2013-02-22 07:52:00,
2013-02-22 02:57:00,23.5,13.1,30.17,WNW,298,3.0,3.0,64,0.00,SCT,,0.00,0.0,WeatherDisplay:10.37,2013-02-22 07:57:00,
2013-02-22 03:02:00,23.3,12.9,30.17,NW,322,2.3,2.3,64,0.00,SCT,,0.00,0.0,WeatherDisplay:10.37,2013-02-22 08:02:00,
2013-02-22 03:07:00,23.3,12.9,30.17,North,0,2.0,2.0,64,0.00,SCT,,0.00,0.0,WeatherDisplay:10.37,2013-02-22 08:07:00,
2013-02-22 03:12:00,23.2,12.8,30.17,NW,304,5.8,5.8,64,0.00,SCT,,0.00,0.0,WeatherDisplay:10.37,2013-02-22 08:12:00,
2013-02-22 03:17:00,23.2,13.2,30.17,NNW,342,3.5,3.5,65,0.00,BKN,,0.00,0.0,WeatherDisplay:10.37,2013-02-22 08:17:00,
2013-02-22 03:22:00,23.2,13.2,30.17,NW,323,1.1,1.1,65,0.00,BKN,,0.00,0.0,WeatherDisplay:10.37,2013-02-22 08:22:00,
2013-02-22 03:27:00,23.2,13.2,30.17,NNW,337,0.0,0.0,65,0.00,BKN,,0.00,0.0,WeatherDisplay:10.37,2013-02-22 08:27:00,
2013-02-22 03:32:00,23.2,13.2,30.17,NNE,16,4.6,4.6,65,0.00,BKN,,0.00,0.0,WeatherDisplay:10.37,2013-02-22 08:32:00,
2013-02-22 03:37:00,23.0,13.0,30.17,NNW,342,1.1,1.1,65,0.00,BKN,,0.00,0.0,WeatherDisplay:10.37,2013-02-22 08:37:00,
2013-02-22 03:42:00,23.0,13.0,30.17,North,4,2.3,2.3,65,0.00,BKN,,0.00,0.0,WeatherDisplay:10.37,2013-02-22 08:42:00,
2013-02-22 03:47:00,23.0,13.0,30.17,NNW,332,2.3,2.3,65,0.00,BKN,,0.00,0.0,WeatherDisplay:10.37,2013-02-22 08:47:00,
2013-02-22 03:52:00,23.0,13.3,30.17,North,0,3.5,3.5,66,0.00,BKN,,0.00,0.0,WeatherDisplay:10.37,2013-02-22 08:52:00,
2013-02-22 03:57:00,23.0,13.3,30.17,NW,323,3.5,3.5,66,0.00,BKN,,0.00,0.0,WeatherDisplay:10.37,2013-02-22 08:57:00,
2013-02-22 04:02:00,23.0,13.3,30.17,NNW,330,3.5,3.5,66,0.00,BKN,,0.00,0.0,WeatherDisplay:10.37,2013-02-22 09:02:00,
2013-02-22 04:07:00,23.0,13.3,30.17,NNW,347,1.1,1.1,66,0.00,BKN,,0.00,0.0,WeatherDisplay:10.37,2013-02-22 09:07:00,
2013-02-22 04:12:00,23.0,13.3,30.17,NNW,346,4.6,4.6,66,0.00,BKN,,0.00,0.0,WeatherDisplay:10.37,2013-02-22 09:12:00,
2013-02-22 04:17:00,23.0,13.3,30.17,NNW,344,2.3,2.3,66,0.00,OVC,,0.00,0.0,WeatherDisplay:10.37,2013-02-22 09:17:00,
2013-02-22 04:22:00,23.0,13.3,30.17,NW,322,3.5,3.5,66,0.00,OVC,,0.00,0.0,WeatherDisplay:10.37,2013-02-22 09:22:00,
2013-02-22 04:27:00,23.0,13.3,30.17,NW,326,3.5,3.5,66,0.00,OVC,,0.00,0.0,WeatherDisplay:10.37,2013-02-22 09:27:00,
2013-02-22 04:32:00,23.0,13.3,30.18,NW,326,0.0,0.0,66,0.00,OVC,,0.00,0.0,WeatherDisplay:10.37,2013-02-22 09:32:00,
2013-02-22 04:37:00,23.0,13.3,30.18,North,356,1.1,1.1,66,0.00,OVC,,0.00,0.0,WeatherDisplay:10.37,2013-02-22 09:37:00,
2013-02-22 04:42:00,23.0,13.3,30.18,WNW,291,2.3,0.0,66,0.00,OVC,,0.00,0.0,WeatherDisplay:10.37,2013-02-22 09:42:00,
2013-02-22 04:47:00,23.0,13.3,30.18,NNW,339,3.5,3.5,66,0.00,OVC,,0.00,0.0,WeatherDisplay:10.37,2013-02-22 09:47:00,
2013-02-22 04:52:00,23.0,13.3,30.18,NNW,342,3.0,3.0,66,0.00,OVC,,0.00,0.0,WeatherDisplay:10.37,2013-02-22 09:52:00,
2013-02-22 04:57:00,23.2,13.5,30.18,NW,306,1.1,1.1,66,0.00,OVC,,0.00,0.0,WeatherDisplay:10.37,2013-02-22 09:57:00,
2013-02-22 05:02:00,23.2,13.5,30.19,NW,319,1.1,0.0,66,0.00,OVC,,0.00,0.0,WeatherDisplay:10.37,2013-02-22 10:02:00,
2013-02-22 05:07:00,23.2,13.5,30.19,NNW,339,1.1,1.1,66,0.00,OVC,,0.00,0.0,WeatherDisplay:10.37,2013-02-22 10:07:00,
2013-02-22 05:12:00,23.2,13.5,30.19,NNW,342,0.0,0.0,66,0.00,OVC,,0.00,0.0,WeatherDisplay:10.37,2013-02-22 10:12:00,
2013-02-22 05:17:00,23.3,13.6,30.20,NNW,342,1.1,0.0,66,0.00,OVC,,0.00,0.0,WeatherDisplay:10.37,2013-02-22 10:17:00,
2013-02-22 05:22:00,23.3,14.0,30.20,NW,318,1.1,0.0,67,0.00,OVC,,0.00,0.0,WeatherDisplay:10.37,2013-02-22 10:22:00,
2013-02-22 05:27:00,23.3,14.0,30.20,NW,318,2.0,2.0,67,0.00,OVC,,0.00,0.0,WeatherDisplay:10.37,2013-02-22 10:27:00,
2013-02-22 05:32:00,23.3,14.0,30.21,NW,305,1.1,1.1,67,0.00,OVC,,0.00,0.0,WeatherDisplay:10.37,2013-02-22 10:32:00,
2013-02-22 05:37:00,23.3,14.0,30.21,NNW,329,2.3,0.0,67,0.00,OVC,,0.00,0.0,WeatherDisplay:10.37,2013-02-22 10:37:00,
2013-02-22 05:43:00,23.3,14.0,30.21,North,353,3.5,3.5,67,0.00,OVC,,0.00,0.0,WeatherDisplay:10.37,2013-02-22 10:43:00,
2013-02-22 05:48:00,23.5,14.1,30.22,North,0,3.5,3.5,67,0.00,OVC,,0.00,0.0,WeatherDisplay:10.37,2013-02-22 10:48:00,
2013-02-22 05:53:00,23.5,14.1,30.22,NNW,343,2.3,2.3,67,0.00,OVC,,0.00,0.0,WeatherDisplay:10.37,2013-02-22 10:53:00,
2013-02-22 05:58:00,23.5,14.1,30.22,NNW,340,5.8,5.8,67,0.00,OVC,,0.00,0.0,WeatherDisplay:10.37,2013-02-22 10:58:00,
2013-02-22 06:03:00,23.5,14.1,30.21,NNW,347,2.0,2.0,67,0.00,OVC,,0.00,0.0,WeatherDisplay:10.37,2013-02-22 11:03:00,
2013-02-22 06:08:00,23.5,14.1,30.21,North,0,3.5,3.5,67,0.00,OVC,,0.00,0.0,WeatherDisplay:10.37,2013-02-22 11:08:00,
2013-02-22 06:13:00,23.6,14.2,30.21,NNW,335,1.1,1.1,67,0.00,OVC,,0.00,0.0,WeatherDisplay:10.37,2013-02-22 11:13:00,
2013-02-22 06:18:00,23.6,14.2,30.20,NNW,328,1.1,0.0,67,0.00,OVC,,0.00,0.0,WeatherDisplay:10.37,2013-02-22 11:18:00,
2013-02-22 06:23:00,23.6,14.2,30.20,North,0,3.5,3.5,67,0.00,OVC,,0.00,0.0,WeatherDisplay:10.37,2013-02-22 11:23:00,
2013-02-22 06:28:00,23.6,14.2,30.20,NNW,328,0.0,0.0,67,0.00,OVC,,0.00,0.0,WeatherDisplay:10.37,2013-02-22 11:28:00,
2013-02-22 06:33:00,23.8,14.4,30.20,NW,318,1.1,0.0,67,0.00,OVC,,0.00,0.0,WeatherDisplay:10.37,2013-02-22 11:33:00,
2013-02-22 06:38:00,23.8,14.1,30.20,NW,316,3.5,3.5,66,0.00,OVC,,0.00,0.0,WeatherDisplay:10.37,2013-02-22 11:38:00,
2013-02-22 06:43:00,23.9,14.2,30.20,NNW,343,1.1,1.1,66,0.00,OVC,,0.00,0.0,WeatherDisplay:10.37,2013-02-22 11:43:00,
2013-02-22 06:48:00,23.9,14.2,30.23,NNW,329,2.3,2.3,66,0.00,OVC,,0.00,0.0,WeatherDisplay:10.37,2013-02-22 11:48:00,
2013-02-22 06:53:00,23.9,14.5,30.23,NNW,329,0.0,0.0,67,0.00,OVC,,0.00,0.0,WeatherDisplay:10.37,2013-02-22 11:53:00,
2013-02-22 06:58:00,24.1,14.4,30.23,North,0,3.5,3.5,66,0.00,OVC,,0.00,0.0,WeatherDisplay:10.37,2013-02-22 11:58:00,
2013-02-22 07:03:00,24.1,14.4,30.22,NW,322,0.0,0.0,66,0.00,OVC,,0.00,5.0,WeatherDisplay:10.37,2013-02-22 12:03:00,
2013-02-22 07:08:00,24.2,14.5,30.22,NNW,339,1.1,1.1,66,0.00,OVC,,0.00,11.0,WeatherDisplay:10.37,2013-02-22 12:08:00,
2013-02-22 07:13:00,24.2,14.5,30.22,North,357,3.0,3.0,66,0.00,OVC,,0.00,14.0,WeatherDisplay:10.37,2013-02-22 12:13:00,
2013-02-22 07:18:00,24.2,14.5,30.23,NNW,330,1.0,1.0,66,0.00,OVC,,0.00,28.0,WeatherDisplay:10.37,2013-02-22 12:18:00,
2013-02-22 07:23:00,24.4,14.7,30.23,NNW,332,1.1,1.1,66,0.00,OVC,,0.00,26.0,WeatherDisplay:10.37,2013-02-22 12:23:00,
2013-02-22 07:28:00,24.4,14.7,30.23,NNW,346,0.0,0.0,66,0.00,OVC,,0.00,32.0,WeatherDisplay:10.37,2013-02-22 12:28:00,
2013-02-22 07:33:00,24.5,14.8,30.24,NW,326,0.0,0.0,66,0.00,OVC,,0.00,42.0,WeatherDisplay:10.37,2013-02-22 12:33:00,
2013-02-22 07:38:00,24.7,14.9,30.24,NNW,333,2.3,2.3,66,0.00,OVC,,0.00,46.0,WeatherDisplay:10.37,2013-02-22 12:38:00,
2013-02-22 07:43:00,24.7,14.9,30.24,NNW,336,1.1,0.0,66,0.00,OVC,,0.00,74.0,WeatherDisplay:10.37,2013-02-22 12:43:00,
2013-02-22 07:48:00,24.8,15.0,30.24,NNW,343,2.0,2.0,66,0.00,OVC,,0.00,79.0,WeatherDisplay:10.37,2013-02-22 12:48:00,
2013-02-22 07:53:00,25.1,15.0,30.24,NW,315,2.3,2.3,65,0.00,OVC,,0.00,93.0,WeatherDisplay:10.37,2013-02-22 12:53:00,
2013-02-22 07:58:00,25.3,15.2,30.24,WNW,302,1.1,0.0,65,0.00,OVC,,0.00,106.0,WeatherDisplay:10.37,2013-02-22 12:58:00,
2013-02-22 08:03:00,25.6,15.1,30.24,NNW,333,0.0,0.0,64,0.00,OVC,,0.00,113.0,WeatherDisplay:10.37,2013-02-22 13:03:00,
2013-02-22 08:08:00,25.8,15.3,30.24,NNW,340,1.1,1.1,64,0.00,OVC,,0.00,134.0,WeatherDisplay:10.37,2013-02-22 13:08:00,
2013-02-22 08:13:00,26.1,15.2,30.24,NNW,340,0.0,0.0,63,0.00,OVC,,0.00,143.0,WeatherDisplay:10.37,2013-02-22 13:13:00,
2013-02-22 08:18:00,26.4,15.5,30.25,NNW,340,1.1,1.1,63,0.00,OVC,,0.00,123.0,WeatherDisplay:10.37,2013-02-22 13:18:00,
2013-02-22 08:23:00,26.7,15.8,30.25,NNW,335,3.5,3.5,63,0.00,OVC,,0.00,123.0,WeatherDisplay:10.37,2013-02-22 13:23:00,
2013-02-22 08:28:00,26.9,15.6,30.25,NNW,328,1.1,0.0,62,0.00,OVC,,0.00,135.0,WeatherDisplay:10.37,2013-02-22 13:28:00,
2013-02-22 08:33:00,26.9,15.6,30.24,ENE,64,0.0,0.0,62,0.00,OVC,,0.00,144.0,WeatherDisplay:10.37,2013-02-22 13:33:00,
2013-02-22 08:38:00,26.9,15.6,30.24,NE,49,2.3,2.3,62,0.00,OVC,,0.00,134.0,WeatherDisplay:10.37,2013-02-22 13:38:00,
2013-02-22 08:43:00,27.0,15.7,30.24,East,93,0.0,0.0,62,0.00,OVC,,0.00,137.0,WeatherDisplay:10.37,2013-02-22 13:43:00,
2013-02-22 08:48:00,27.3,16.0,30.25,North,353,1.1,0.0,62,0.00,OVC,,0.00,194.0,WeatherDisplay:10.37,2013-02-22 13:48:00,
2013-02-22 08:53:00,27.5,15.8,30.25,NNW,342,2.3,2.3,61,0.00,OVC,,0.00,215.0,WeatherDisplay:10.37,2013-02-22 13:53:00,
2013-02-22 08:58:00,27.8,15.7,30.25,NNW,333,3.5,0.0,60,0.00,OVC,,0.00,250.0,WeatherDisplay:10.37,2013-02-22 13:58:00,
2013-02-22 09:03:00,28.2,16.1,30.23,NE,56,1.1,1.1,60,0.00,OVC,,0.00,199.0,WeatherDisplay:10.37,2013-02-22 14:03:00,
2013-02-22 09:08:00,28.4,15.9,30.23,North,0,6.0,6.0,59,0.00,OVC,,0.00,162.0,WeatherDisplay:10.37,2013-02-22 14:08:00,
2013-02-22 09:13:00,28.4,15.9,30.23,East,83,2.3,2.3,59,0.00,OVC,,0.00,157.0,WeatherDisplay:10.37,2013-02-22 14:13:00,
2013-02-22 09:18:00,28.4,15.9,30.23,West,271,3.5,3.5,59,0.00,OVC,,0.00,151.0,WeatherDisplay:10.37,2013-02-22 14:18:00,
2013-02-22 09:23:00,28.4,15.9,30.23,NW,306,0.0,0.0,59,0.00,OVC,,0.00,153.0,WeatherDisplay:10.37,2013-02-22 14:23:00,
2013-02-22 09:28:00,28.4,15.9,30.23,ESE,102,3.5,3.5,59,0.00,OVC,,0.00,150.0,WeatherDisplay:10.37,2013-02-22 14:28:00,
2013-02-22 09:33:00,28.5,16.0,30.22,North,359,2.3,2.3,59,0.00,OVC,,0.00,128.0,WeatherDisplay:10.37,2013-02-22 14:33:00,
2013-02-22 09:38:00,28.7,16.2,30.22,North,0,0.0,0.1,59,0.00,OVC,,0.00,132.0,WeatherDisplay:10.37,2013-02-22 14:38:00,
2013-02-22 09:43:00,28.7,16.2,30.22,SSE,160,2.3,2.3,59,0.00,OVC,,0.00,135.0,WeatherDisplay:10.37,2013-02-22 14:43:00,
2013-02-22 09:48:00,28.8,16.3,30.21,North,3,2.0,2.0,59,0.00,OVC,,0.00,174.0,WeatherDisplay:10.37,2013-02-22 14:48:00,
2013-02-22 09:53:00,28.8,16.3,30.21,SE,136,1.1,1.1,59,0.00,OVC,,0.00,187.0,WeatherDisplay:10.37,2013-02-22 14:53:00,
2013-02-22 09:58:00,28.8,16.3,30.21,NE,40,1.1,0.0,59,0.00,OVC,,0.00,197.0,WeatherDisplay:10.37,2013-02-22 14:58:00,
2013-02-22 10:03:00,29.0,16.4,30.21,ESE,116,1.1,1.1,59,0.00,OVC,,0.00,216.0,WeatherDisplay:10.37,2013-02-22 15:03:00,
2013-02-22 10:08:00,29.3,16.7,30.21,SSW,195,2.0,2.0,59,0.00,OVC,,0.00,220.0,WeatherDisplay:10.37,2013-02-22 15:08:00,
2013-02-22 10:13:00,29.7,16.7,30.21,SSE,148,1.0,1.0,58,0.00,OVC,,0.00,241.0,WeatherDisplay:10.37,2013-02-22 15:13:00,
2013-02-22 10:18:00,30.0,17.0,30.22,NNW,342,1.1,1.1,58,0.00,OVC,,0.00,218.0,WeatherDisplay:10.37,2013-02-22 15:18:00,
2013-02-22 10:23:00,30.1,16.7,30.22,SSE,167,2.3,2.3,57,0.00,OVC,,0.00,197.0,WeatherDisplay:10.37,2013-02-22 15:23:00,
2013-02-22 10:28:00,30.1,16.7,30.22,SSE,164,2.3,2.3,57,0.00,OVC,,0.00,183.0,WeatherDisplay:10.37,2013-02-22 15:28:00,
2013-02-22 10:33:00,30.3,16.9,30.21,NNE,24,1.1,1.1,57,0.00,OVC,,0.00,174.0,WeatherDisplay:10.37,2013-02-22 15:33:00,
2013-02-22 10:38:00,30.4,17.0,30.21,North,8,3.5,3.5,57,0.00,OVC,,0.00,155.0,WeatherDisplay:10.37,2013-02-22 15:38:00,
2013-02-22 10:43:00,30.6,17.2,30.21,North,4,2.3,2.3,57,0.00,OVC,,0.00,160.0,WeatherDisplay:10.37,2013-02-22 15:43:00,
2013-02-22 10:48:00,30.6,17.2,30.21,South,182,2.3,0.0,57,0.00,OVC,,0.00,181.0,WeatherDisplay:10.37,2013-02-22 15:48:00,
2013-02-22 10:53:00,30.6,17.2,30.21,SSW,198,1.1,1.1,57,0.00,OVC,,0.00,172.0,WeatherDisplay:10.37,2013-02-22 15:53:00,
2013-02-22 10:58:00,30.7,17.3,30.21,SSW,198,3.5,0.0,57,0.00,OVC,,0.00,179.0,WeatherDisplay:10.37,2013-02-22 15:58:00,
2013-02-22 11:03:00,30.9,17.4,30.21,SSW,200,1.1,0.0,57,0.00,OVC,,0.00,218.0,WeatherDisplay:10.37,2013-02-22 16:03:00,
2013-02-22 11:08:00,30.9,17.0,30.21,NNE,24,4.6,4.6,56,0.00,OVC,,0.00,255.0,WeatherDisplay:10.37,2013-02-22 16:08:00,
2013-02-22 11:13:00,31.0,17.5,30.21,NE,41,3.5,3.5,57,0.00,OVC,,0.00,241.0,WeatherDisplay:10.37,2013-02-22 16:13:00,
2013-02-22 11:18:00,31.0,17.5,30.20,NE,54,3.5,3.5,57,0.00,OVC,,0.00,246.0,WeatherDisplay:10.37,2013-02-22 16:18:00,
2013-02-22 11:23:00,31.2,17.7,30.20,SSW,210,1.1,1.1,57,0.00,OVC,,0.00,271.0,WeatherDisplay:10.37,2013-02-22 16:23:00,
2013-02-22 11:28:00,31.5,17.6,30.20,SE,144,3.0,3.0,56,0.00,OVC,,0.00,274.0,WeatherDisplay:10.37,2013-02-22 16:28:00,
2013-02-22 11:33:00,31.6,18.1,30.20,ESE,114,2.3,2.3,57,0.00,OVC,,0.00,252.0,WeatherDisplay:10.37,2013-02-22 16:33:00,
2013-02-22 11:38:00,31.9,18.0,30.20,South,184,3.5,3.5,56,0.00,OVC,,0.00,274.0,WeatherDisplay:10.37,2013-02-22 16:38:00,
2013-02-22 11:43:00,32.2,18.2,30.20,ENE,66,2.3,2.3,56,0.00,OVC,,0.00,273.0,WeatherDisplay:10.37,2013-02-22 16:43:00,
2013-02-22 11:48:00,32.5,18.5,30.20,SW,222,2.3,2.3,56,0.00,OVC,,0.00,264.0,WeatherDisplay:10.37,2013-02-22 16:48:00,
2013-02-22 11:53:00,32.5,18.5,30.20,SSE,150,2.3,2.3,56,0.00,OVC,,0.00,350.0,WeatherDisplay:10.37,2013-02-22 16:53:00,
2013-02-22 11:58:00,33.1,18.7,30.20,NNE,32,2.3,2.3,55,0.00,OVC,,0.00,329.0,WeatherDisplay:10.37,2013-02-22 16:58:00,
2013-02-22 12:03:00,33.5,18.6,30.21,SSE,168,5.0,5.0,54,0.00,OVC,,0.00,350.0,WeatherDisplay:10.37,2013-02-22 17:03:00,
2013-02-22 12:08:00,33.7,18.8,30.21,SE,133,1.1,1.1,54,0.00,OVC,,0.00,345.0,WeatherDisplay:10.37,2013-02-22 17:08:00,
2013-02-22 12:13:00,33.7,18.8,30.21,NNE,20,1.1,1.1,54,0.00,OVC,,0.00,355.0,WeatherDisplay:10.37,2013-02-22 17:13:00,
2013-02-22 12:18:00,33.7,18.8,30.19,ENE,61,1.1,1.8,54,0.00,OVC,,0.00,274.0,WeatherDisplay:10.37,2013-02-22 17:18:00,
2013-02-22 12:23:00,33.8,18.9,30.19,North,6,1.1,1.1,54,0.00,OVC,,0.00,267.0,WeatherDisplay:10.37,2013-02-22 17:23:00,
2013-02-22 12:28:00,33.8,18.9,30.19,NNE,21,1.1,1.1,54,0.00,OVC,,0.00,255.0,WeatherDisplay:10.37,2013-02-22 17:28:00,
2013-02-22 12:33:00,33.8,18.9,30.18,SSE,152,2.3,2.3,54,0.00,OVC,,0.00,243.0,WeatherDisplay:10.37,2013-02-22 17:33:00,
2013-02-22 12:38:00,33.8,18.9,30.18,South,186,2.3,2.3,54,0.00,OVC,,0.00,225.0,WeatherDisplay:10.37,2013-02-22 17:38:00,
2013-02-22 12:43:00,34.0,19.1,30.18,NNE,17,2.3,2.3,54,0.00,OVC,,0.00,271.0,WeatherDisplay:10.37,2013-02-22 17:43:00,
2013-02-22 12:48:00,34.1,19.2,30.17,ESE,123,2.3,2.3,54,0.00,OVC,,0.00,326.0,WeatherDisplay:10.37,2013-02-22 17:48:00,
2013-02-22 12:53:00,34.4,19.5,30.17,SSW,213,2.3,2.3,54,0.00,OVC,,0.00,348.0,WeatherDisplay:10.37,2013-02-22 17:53:00,
2013-02-22 12:58:00,34.7,19.3,30.17,South,189,3.5,3.5,53,0.00,OVC,,0.00,350.0,WeatherDisplay:10.37,2013-02-22 17:58:00,
2013-02-22 13:03:00,35.0,19.6,30.17,SSE,161,3.5,3.5,53,0.00,OVC,,0.00,394.0,WeatherDisplay:10.37,2013-02-22 18:03:00,
2013-02-22 13:08:00,35.2,19.8,30.17,NE,51,1.1,1.1,53,0.00,OVC,,0.00,370.0,WeatherDisplay:10.37,2013-02-22 18:08:00,
2013-02-22 13:13:00,35.5,20.0,30.17,NE,52,2.3,2.3,53,0.00,OVC,,0.00,324.0,WeatherDisplay:10.37,2013-02-22 18:13:00,
2013-02-22 13:18:00,35.5,20.0,30.16,South,179,3.5,3.5,53,0.00,OVC,,0.00,333.0,WeatherDisplay:10.37,2013-02-22 18:18:00,
2013-02-22 13:23:00,35.6,19.7,30.16,South,186,3.5,3.5,52,0.00,OVC,,0.00,362.0,WeatherDisplay:10.37,2013-02-22 18:23:00,
2013-02-22 13:28:00,35.8,20.3,30.16,South,185,4.6,4.6,53,0.00,OVC,,0.00,348.0,WeatherDisplay:10.37,2013-02-22 18:28:00,
2013-02-22 13:33:00,35.8,20.3,30.16,SSW,199,0.0,0.1,53,0.00,OVC,,0.00,338.0,WeatherDisplay:10.37,2013-02-22 18:33:00,
2013-02-22 13:38:00,36.0,20.1,30.16,SSE,162,1.1,1.1,52,0.00,OVC,,0.00,310.0,WeatherDisplay:10.37,2013-02-22 18:38:00,
2013-02-22 13:43:00,36.3,20.3,30.16,ESE,116,1.1,1.1,52,0.00,OVC,,0.00,216.0,WeatherDisplay:10.37,2013-02-22 18:43:00,
2013-02-22 13:48:00,36.2,20.2,30.16,South,188,1.1,1.1,52,0.00,OVC,,0.00,241.0,WeatherDisplay:10.37,2013-02-22 18:48:00,
2013-02-22 13:53:00,36.2,20.2,30.16,South,178,1.1,1.1,52,0.00,OVC,,0.00,209.0,WeatherDisplay:10.37,2013-02-22 18:53:00,
2013-02-22 13:58:00,36.3,20.3,30.16,SSW,208,3.5,3.5,52,0.00,OVC,,0.00,179.0,WeatherDisplay:10.37,2013-02-22 18:58:00,
2013-02-22 14:03:00,36.2,20.2,30.15,South,181,1.1,1.1,52,0.00,OVC,,0.00,190.0,WeatherDisplay:10.37,2013-02-22 19:03:00,
2013-02-22 14:08:00,36.3,20.3,30.15,WSW,250,2.3,2.3,52,0.00,OVC,,0.00,174.0,WeatherDisplay:10.37,2013-02-22 19:08:00,
2013-02-22 14:13:00,36.3,20.8,30.15,East,90,0.0,0.1,53,0.00,OVC,,0.00,146.0,WeatherDisplay:10.37,2013-02-22 19:13:00,
2013-02-22 14:18:00,36.3,20.3,30.15,SSW,209,3.5,3.5,52,0.00,OVC,,0.00,148.0,WeatherDisplay:10.37,2013-02-22 19:18:00,
2013-02-22 14:23:00,36.2,20.2,30.15,SSW,196,2.3,2.3,52,0.00,OVC,,0.00,160.0,WeatherDisplay:10.37,2013-02-22 19:23:00,
2013-02-22 14:28:00,36.3,20.8,30.15,SSW,199,1.1,1.1,53,0.00,OVC,,0.00,130.0,WeatherDisplay:10.37,2013-02-22 19:28:00,
2013-02-22 14:33:00,36.3,20.8,30.14,South,181,2.3,2.3,53,0.00,OVC,,0.00,121.0,WeatherDisplay:10.37,2013-02-22 19:33:00,
2013-02-22 14:38:00,36.3,21.2,30.14,SSW,200,2.3,2.3,54,0.00,OVC,,0.00,125.0,WeatherDisplay:10.37,2013-02-22 19:38:00,
2013-02-22 14:43:00,36.3,21.2,30.14,SW,217,1.1,1.1,54,0.00,OVC,,0.00,114.0,WeatherDisplay:10.37,2013-02-22 19:43:00,
2013-02-22 14:48:00,36.3,21.2,30.15,SW,219,2.3,2.3,54,0.00,OVC,,0.00,107.0,WeatherDisplay:10.37,2013-02-22 19:48:00,
2013-02-22 14:53:00,36.3,21.2,30.15,SSW,202,3.0,3.0,54,0.00,OVC,,0.00,90.0,WeatherDisplay:10.37,2013-02-22 19:53:00,
2013-02-22 14:58:00,36.2,21.6,30.15,SSW,205,1.1,0.0,55,0.00,OVC,,0.00,74.0,WeatherDisplay:10.37,2013-02-22 19:58:00,
2013-02-22 15:03:00,36.2,21.6,30.14,East,96,1.1,0.0,55,0.00,OVC,,0.00,69.0,WeatherDisplay:10.37,2013-02-22 20:03:00,
2013-02-22 15:08:00,36.2,21.6,30.14,SSW,206,1.1,0.0,55,0.00,OVC,,0.00,90.0,WeatherDisplay:10.37,2013-02-22 20:08:00,
2013-02-22 15:13:00,36.3,21.7,30.14,SE,143,1.1,1.1,55,0.00,OVC,,0.00,102.0,WeatherDisplay:10.37,2013-02-22 20:13:00,
2013-02-22 15:18:00,36.3,21.7,30.14,SSW,205,1.1,1.1,55,0.00,OVC,,0.00,74.0,WeatherDisplay:10.37,2013-02-22 20:18:00,
2013-02-22 15:23:00,36.3,21.7,30.14,SSW,206,3.0,3.0,55,0.00,OVC,,0.00,76.0,WeatherDisplay:10.37,2013-02-22 20:23:00,
2013-02-22 15:28:00,36.3,21.7,30.14,SSE,160,0.0,0.1,55,0.00,OVC,,0.00,76.0,WeatherDisplay:10.37,2013-02-22 20:28:00,
2013-02-22 15:33:00,36.3,21.7,30.15,SSW,208,2.3,2.3,55,0.00,OVC,,0.00,67.0,WeatherDisplay:10.37,2013-02-22 20:33:00,
2013-02-22 15:38:00,36.3,21.7,30.15,ESE,113,1.1,0.0,55,0.00,OVC,,0.00,58.0,WeatherDisplay:10.37,2013-02-22 20:38:00,
2013-02-22 15:43:00,36.5,21.8,30.15,SSE,157,1.1,0.0,55,0.00,OVC,,0.00,48.0,WeatherDisplay:10.37,2013-02-22 20:43:00,
2013-02-22 15:48:00,36.5,21.8,30.14,South,186,0.0,0.2,55,0.00,OVC,,0.00,56.0,WeatherDisplay:10.37,2013-02-22 20:48:00,
2013-02-22 15:53:00,36.5,21.8,30.14,SSW,213,2.3,2.3,55,0.00,OVC,,0.00,60.0,WeatherDisplay:10.37,2013-02-22 20:53:00,
2013-02-22 15:58:00,36.5,22.3,30.14,SSW,192,0.0,0.0,56,0.00,OVC,,0.00,58.0,WeatherDisplay:10.37,2013-02-22 20:58:00,
2013-02-22 16:03:00,36.6,21.9,30.15,East,93,1.0,1.0,55,0.00,OVC,,0.00,62.0,WeatherDisplay:10.37,2013-02-22 21:03:00,
2013-02-22 16:08:00,36.8,22.6,30.15,SSE,152,1.1,1.1,56,0.00,OVC,,0.00,53.0,WeatherDisplay:10.37,2013-02-22 21:08:00,
2013-02-22 16:13:00,36.9,22.7,30.15,South,181,1.1,1.1,56,0.00,OVC,,0.00,56.0,WeatherDisplay:10.37,2013-02-22 21:13:00,
2013-02-22 16:18:00,36.9,22.7,30.14,SSW,198,0.0,0.0,56,0.00,OVC,,0.00,46.0,WeatherDisplay:10.37,2013-02-22 21:18:00,
2013-02-22 16:23:00,37.0,22.7,30.14,SSW,200,1.1,0.0,56,0.00,OVC,,0.00,35.0,WeatherDisplay:10.37,2013-02-22 21:23:00,
2013-02-22 16:28:00,37.0,22.7,30.14,North,359,2.3,2.3,56,0.00,OVC,,0.00,30.0,WeatherDisplay:10.37,2013-02-22 21:28:00,
2013-02-22 16:33:00,37.0,22.7,30.14,NE,34,1.1,1.1,56,0.00,OVC,,0.00,21.0,WeatherDisplay:10.37,2013-02-22 21:33:00,
2013-02-22 16:38:00,37.0,22.7,30.14,South,182,1.1,1.1,56,0.00,OVC,,0.00,21.0,WeatherDisplay:10.37,2013-02-22 21:38:00,
2013-02-22 16:43:00,37.0,23.2,30.14,SW,236,2.3,2.3,57,0.00,OVC,,0.00,16.0,WeatherDisplay:10.37,2013-02-22 21:43:00,
2013-02-22 16:48:00,37.0,23.2,30.14,SSE,148,0.0,0.1,57,0.00,OVC,,0.00,14.0,WeatherDisplay:10.37,2013-02-22 21:48:00,
2013-02-22 16:53:00,37.0,23.2,30.14,SSW,195,1.1,1.1,57,0.00,OVC,,0.00,16.0,WeatherDisplay:10.37,2013-02-22 21:53:00,
2013-02-22 16:58:00,37.0,23.6,30.14,SW,215,1.1,1.1,58,0.00,OVC,,0.00,21.0,WeatherDisplay:10.37,2013-02-22 21:58:00,
2013-02-22 17:03:00,37.0,23.6,30.14,SSW,212,2.3,2.3,58,0.00,OVC,,0.00,16.0,WeatherDisplay:10.37,2013-02-22 22:03:00,
2013-02-22 17:08:00,37.0,23.6,30.14,SSW,199,1.1,0.0,58,0.00,OVC,,0.00,12.0,WeatherDisplay:10.37,2013-02-22 22:08:00,
2013-02-22 17:13:00,37.0,23.6,30.14,SW,227,2.3,2.3,58,0.00,OVC,,0.00,11.0,WeatherDisplay:10.37,2013-02-22 22:13:00,
2013-02-22 17:18:00,37.0,24.0,30.14,SSE,162,1.1,1.1,59,0.00,OVC,,0.00,5.0,WeatherDisplay:10.37,2013-02-22 22:18:00,
2013-02-22 17:23:00,37.0,24.0,30.14,SSE,150,3.5,3.5,59,0.00,OVC,,0.00,0.0,WeatherDisplay:10.37,2013-02-22 22:23:00,
2013-02-22 17:28:00,37.0,24.0,30.14,South,191,0.0,0.0,59,0.00,OVC,,0.00,11.0,WeatherDisplay:10.37,2013-02-22 22:28:00,
2013-02-22 17:33:00,37.0,24.4,30.14,South,184,0.0,0.0,60,0.00,OVC,,0.00,5.0,WeatherDisplay:10.37,2013-02-22 22:33:00,
2013-02-22 17:38:00,37.0,24.4,30.14,SSW,192,1.1,1.1,60,0.00,OVC,,0.00,0.0,WeatherDisplay:10.37,2013-02-22 22:38:00,
2013-02-22 17:43:00,37.0,24.4,30.14,East,95,1.1,1.1,60,0.00,OVC,,0.00,0.0,WeatherDisplay:10.37,2013-02-22 22:43:00,
2013-02-22 17:48:00,37.0,24.4,30.14,SE,140,2.3,2.3,60,0.00,OVC,,0.00,0.0,WeatherDisplay:10.37,2013-02-22 22:48:00,
2013-02-22 17:53:00,36.9,24.3,30.14,SSW,196,2.0,2.0,60,0.00,OVC,,0.00,0.0,WeatherDisplay:10.37,2013-02-22 22:53:00,
2013-02-22 17:58:00,36.9,24.7,30.14,SSW,208,3.5,3.5,61,0.00,OVC,,0.00,0.0,WeatherDisplay:10.37,2013-02-22 22:58:00,
2013-02-22 18:03:00,36.9,24.7,30.13,SSW,206,1.1,0.0,61,0.00,OVC,,0.00,0.0,WeatherDisplay:10.37,2013-02-22 23:03:00,
2013-02-22 18:08:00,36.8,25.0,30.13,SSE,164,2.3,2.3,62,0.00,OVC,,0.00,0.0,WeatherDisplay:10.37,2013-02-22 23:08:00,
2013-02-22 18:13:00,36.8,25.0,30.13,South,191,2.3,2.3,62,0.00,OVC,,0.00,0.0,WeatherDisplay:10.37,2013-02-22 23:13:00,
2013-02-22 18:18:00,36.8,25.0,30.13,SSW,206,3.5,3.5,62,0.00,OVC,,0.00,0.0,WeatherDisplay:10.37,2013-02-22 23:18:00,
2013-02-22 18:23:00,36.9,25.1,30.13,South,186,1.1,1.1,62,0.00,OVC,,0.00,0.0,WeatherDisplay:10.37,2013-02-22 23:23:00,
2013-02-22 18:28:00,36.9,25.1,30.13,SE,126,2.3,2.3,62,0.00,OVC,,0.00,0.0,WeatherDisplay:10.37,2013-02-22 23:28:00,
2013-02-22 18:33:00,36.9,25.1,30.14,South,181,3.0,3.0,62,0.00,OVC,,0.00,0.0,WeatherDisplay:10.37,2013-02-22 23:33:00,
2013-02-22 18:38:00,36.9,25.1,30.14,South,186,1.1,0.0,62,0.00,OVC,,0.00,0.0,WeatherDisplay:10.37,2013-02-22 23:38:00,
2013-02-22 18:43:00,36.8,25.0,30.14,SSW,205,1.1,1.1,62,0.00,OVC,,0.00,0.0,WeatherDisplay:10.37,2013-02-22 23:43:00,
2013-02-22 18:48:00,36.8,25.4,30.13,South,186,3.5,3.5,63,0.00,OVC,,0.00,0.0,WeatherDisplay:10.37,2013-02-22 23:48:00,
2013-02-22 18:53:00,36.6,25.2,30.13,South,174,1.1,0.0,63,0.00,OVC,,0.00,0.0,WeatherDisplay:10.37,2013-02-22 23:53:00,
2013-02-22 18:58:00,36.6,25.6,30.13,ESE,104,10.4,10.4,64,0.00,OVC,,0.00,0.0,WeatherDisplay:10.37,2013-02-22 23:58:00,
2013-02-22 19:03:00,36.5,25.5,30.14,SSW,198,1.1,1.2,64,0.00,OVC,,0.00,0.0,WeatherDisplay:10.37,2013-02-23 00:03:00,
2013-02-22 19:08:00,36.5,25.5,30.14,SSW,210,6.9,6.9,64,0.00,OVC,,0.00,0.0,WeatherDisplay:10.37,2013-02-23 00:08:00,
2013-02-22 19:13:00,36.5,25.8,30.14,SSW,199,1.1,0.0,65,0.00,OVC,,0.00,0.0,WeatherDisplay:10.37,2013-02-23 00:13:00,
2013-02-22 19:18:00,36.3,25.7,30.15,SSW,208,2.3,2.3,65,0.00,OVC,,0.00,0.0,WeatherDisplay:10.37,2013-02-23 00:18:00,
2013-02-22 19:23:00,36.3,25.7,30.15,South,171,2.3,2.3,65,0.00,OVC,,0.00,0.0,WeatherDisplay:10.37,2013-02-23 00:23:00,
2013-02-22 19:28:00,36.2,25.6,30.15,SSW,208,3.5,3.5,65,0.00,OVC,,0.00,0.0,WeatherDisplay:10.37,2013-02-23 00:28:00,
2013-02-22 19:33:00,36.2,25.6,30.15,SSW,205,3.5,3.5,65,0.00,OVC,,0.00,0.0,WeatherDisplay:10.37,2013-02-23 00:33:00,
2013-02-22 19:38:00,36.2,25.9,30.15,SSW,202,2.0,2.0,66,0.00,OVC,,0.00,0.0,WeatherDisplay:10.37,2013-02-23 00:38:00,
2013-02-22 19:43:00,36.2,25.9,30.15,SSW,205,1.1,1.1,66,0.00,OVC,,0.00,0.0,WeatherDisplay:10.37,2013-02-23 00:43:00,
2013-02-22 19:48:00,36.2,25.9,30.15,SSW,198,2.3,2.3,66,0.00,OVC,,0.00,0.0,WeatherDisplay:10.37,2013-02-23 00:48:00,
2013-02-22 19:53:00,36.0,25.7,30.15,SSW,213,3.5,3.5,66,0.00,OVC,,0.00,0.0,WeatherDisplay:10.37,2013-02-23 00:53:00,
2013-02-22 19:58:00,36.0,25.7,30.15,SSW,193,2.3,2.3,66,0.00,OVC,,0.00,0.0,WeatherDisplay:10.37,2013-02-23 00:58:00,
2013-02-22 20:03:00,36.0,26.1,30.15,South,179,1.1,0.0,67,0.00,OVC,,0.00,0.0,WeatherDisplay:10.37,2013-02-23 01:03:00,
2013-02-22 20:08:00,36.0,26.1,30.15,SSW,206,3.5,3.5,67,0.00,OVC,,0.00,0.0,WeatherDisplay:10.37,2013-02-23 01:08:00,
2013-02-22 20:13:00,36.0,26.1,30.15,ESE,110,1.1,1.1,67,0.00,OVC,,0.00,0.0,WeatherDisplay:10.37,2013-02-23 01:13:00,
2013-02-22 20:18:00,36.0,26.5,30.14,SSW,192,1.1,0.0,68,0.00,OVC,,0.00,0.0,WeatherDisplay:10.37,2013-02-23 01:18:00,
2013-02-22 20:23:00,36.0,26.5,30.14,South,171,2.3,2.3,68,0.00,OVC,,0.00,0.0,WeatherDisplay:10.37,2013-02-23 01:23:00,
2013-02-22 20:28:00,35.9,26.7,30.14,SSE,164,3.5,3.5,69,0.00,OVC,,0.00,0.0,WeatherDisplay:10.37,2013-02-23 01:28:00,
2013-02-22 20:33:00,35.9,26.7,30.14,ESE,113,2.3,2.3,69,0.00,OVC,,0.00,0.0,WeatherDisplay:10.37,2013-02-23 01:33:00,
2013-02-22 20:38:00,35.8,26.6,30.14,SSE,151,2.3,2.3,69,0.00,OVC,,0.00,0.0,WeatherDisplay:10.37,2013-02-23 01:38:00,
2013-02-22 20:43:00,35.8,26.6,30.14,SSW,210,5.0,5.0,69,0.00,OVC,,0.00,0.0,WeatherDisplay:10.37,2013-02-23 01:43:00,
2013-02-22 20:48:00,35.8,26.6,30.13,South,179,4.0,4.0,69,0.00,OVC,,0.00,0.0,WeatherDisplay:10.37,2013-02-23 01:48:00,
2013-02-22 20:53:00,35.6,26.4,30.13,SSE,160,1.1,1.1,69,0.00,OVC,,0.00,0.0,WeatherDisplay:10.37,2013-02-23 01:53:00,
2013-02-22 20:58:00,35.6,26.8,30.13,SSW,209,3.5,3.5,70,0.00,OVC,,0.00,0.0,WeatherDisplay:10.37,2013-02-23 01:58:00,
2013-02-22 21:03:00,35.5,26.7,30.12,SSW,195,3.5,3.5,70,0.00,OVC,,0.00,0.0,WeatherDisplay:10.37,2013-02-23 02:03:00,
2013-02-22 21:08:00,35.5,27.0,30.12,SSW,210,2.3,2.3,71,0.00,OVC,,0.00,0.0,WeatherDisplay:10.37,2013-02-23 02:08:00,
2013-02-22 21:13:00,35.5,27.0,30.12,NNW,335,1.1,1.1,71,0.00,OVC,,0.00,0.0,WeatherDisplay:10.37,2013-02-23 02:13:00,
2013-02-22 21:18:00,35.5,27.0,30.13,South,188,2.3,2.3,71,0.00,OVC,,0.00,0.0,WeatherDisplay:10.37,2013-02-23 02:18:00,
2013-02-22 21:23:00,35.5,27.4,30.13,SSW,210,2.3,2.3,72,0.00,OVC,,0.00,0.0,WeatherDisplay:10.37,2013-02-23 02:23:00,
2013-02-22 21:28:00,35.3,27.5,30.13,South,191,5.8,5.8,73,0.00,OVC,,0.00,0.0,WeatherDisplay:10.37,2013-02-23 02:28:00,
2013-02-22 21:33:00,35.3,27.5,30.13,SW,215,1.1,1.1,73,0.00,OVC,,0.00,0.0,WeatherDisplay:10.37,2013-02-23 02:33:00,
2013-02-22 21:38:00,35.3,27.8,30.13,SW,216,1.1,0.0,74,0.00,OVC,,0.00,0.0,WeatherDisplay:10.37,2013-02-23 02:38:00,
2013-02-22 21:43:00,35.3,28.2,30.13,SW,216,1.1,1.1,75,0.00,OVC,,0.00,0.0,WeatherDisplay:10.37,2013-02-23 02:43:00,
2013-02-22 21:48:00,35.3,28.2,30.13,SSW,195,1.1,0.0,75,0.00,OVC,,0.00,0.0,WeatherDisplay:10.37,2013-02-23 02:48:00,
2013-02-22 21:53:00,35.3,28.2,30.13,SSW,195,1.1,1.1,75,0.00,OVC,,0.00,0.0,WeatherDisplay:10.37,2013-02-23 02:53:00,
2013-02-22 21:58:00,35.2,28.4,30.13,SW,216,1.1,0.0,76,0.00,OVC,,0.00,0.0,WeatherDisplay:10.37,2013-02-23 02:58:00,
2013-02-22 22:04:00,35.2,28.7,30.13,SW,216,0.0,0.0,77,0.00,-SN,,0.00,0.0,WeatherDisplay:10.37,2013-02-23 03:04:00,
2013-02-22 22:09:00,35.2,28.7,30.13,SW,216,0.0,0.0,77,0.00,-SN,,0.00,0.0,WeatherDisplay:10.37,2013-02-23 03:09:00,
2013-02-22 22:14:00,35.2,29.0,30.12,SW,216,0.0,0.0,78,0.00,-SN,,0.00,0.0,WeatherDisplay:10.37,2013-02-23 03:14:00,
2013-02-22 22:19:00,35.2,29.0,30.12,SW,216,1.1,1.1,78,0.00,-SN,,0.00,0.0,WeatherDisplay:10.37,2013-02-23 03:19:00,
2013-02-22 22:25:00,35.2,29.3,30.12,NNE,17,2.3,2.3,79,0.00,-SN,,0.00,0.0,WeatherDisplay:10.37,2013-02-23 03:25:00,
2013-02-22 22:30:00,35.2,29.3,30.11,NE,34,2.3,2.3,79,0.00,-SN,,0.00,0.0,WeatherDisplay:10.37,2013-02-23 03:30:00,
2013-02-22 22:35:00,35.2,29.6,30.11,ENE,68,1.1,1.1,80,0.00,OVC,,0.00,0.0,WeatherDisplay:10.37,2013-02-23 03:35:00,
2013-02-22 22:40:00,35.2,30.0,30.11,NE,42,2.3,2.3,81,0.00,OVC,,0.00,0.0,WeatherDisplay:10.37,2013-02-23 03:40:00,
2013-02-22 22:46:00,35.0,29.8,30.09,SE,124,4.6,4.6,81,0.00,OVC,,0.00,0.0,WeatherDisplay:10.37,2013-02-23 03:46:00,
2013-02-22 22:51:00,35.0,30.1,30.09,SSW,199,3.0,3.0,82,0.00,OVC,,0.00,0.0,WeatherDisplay:10.37,2013-02-23 03:51:00,
2013-02-22 22:56:00,35.0,30.4,30.09,NNE,20,0.0,0.4,83,0.00,OVC,,0.00,0.0,WeatherDisplay:10.37,2013-02-23 03:56:00,
2013-02-22 23:01:00,35.0,30.4,30.09,SSE,147,1.1,0.0,83,0.00,OVC,,0.00,0.0,WeatherDisplay:10.37,2013-02-23 04:01:00,
2013-02-22 23:06:00,34.9,30.3,30.09,NE,55,2.3,0.0,83,0.00,OVC,,0.00,0.0,WeatherDisplay:10.37,2013-02-23 04:06:00,
2013-02-22 23:11:00,35.0,30.7,30.09,SSW,210,1.1,0.0,84,0.00,OVC,,0.00,0.0,WeatherDisplay:10.37,2013-02-23 04:11:00,
2013-02-22 23:16:00,35.0,30.7,30.09,NE,35,1.0,1.0,84,0.00,OVC,,0.00,0.0,WeatherDisplay:10.37,2013-02-23 04:16:00,
2013-02-22 23:21:00,35.0,30.9,30.09,SSE,157,1.1,1.1,85,0.00,OVC,,0.00,0.0,WeatherDisplay:10.37,2013-02-23 04:21:00,
2013-02-22 23:26:00,35.0,30.9,30.09,SW,216,1.1,1.1,85,0.00,OVC,,0.00,0.0,WeatherDisplay:10.37,2013-02-23 04:26:00,
2013-02-22 23:31:00,35.0,30.9,30.09,NNE,16,0.0,0.1,85,0.00,OVC,,0.00,0.0,WeatherDisplay:10.37,2013-02-23 04:31:00,
2013-02-22 23:36:00,35.0,30.9,30.09,SSE,161,3.0,3.0,85,0.00,OVC,,0.00,0.0,WeatherDisplay:10.37,2013-02-23 04:36:00,
2013-02-22 23:41:00,35.0,30.9,30.09,NE,42,1.1,1.1,85,0.00,OVC,,0.00,0.0,WeatherDisplay:10.37,2013-02-23 04:41:00,
2013-02-22 23:46:00,35.0,30.9,30.10,South,176,2.3,2.3,85,0.00,OVC,,0.00,0.0,WeatherDisplay:10.37,2013-02-23 04:46:00,
2013-02-22 23:51:00,35.0,31.2,30.10,South,172,1.1,1.1,86,0.00,OVC,,0.00,0.0,WeatherDisplay:10.37,2013-02-23 04:51:00,
2013-02-22 23:56:00,35.0,31.2,30.10,SSE,167,1.1,0.0,86,0.00,OVC,,0.00,0.0,WeatherDisplay:10.37,2013-02-23 04:56:00,